CZ-6A DEB, 54623

Orbit data source: Space-Track

CZ-6A DEB, 54623 is space debris in SSO originally from a launch on Fri, 11 Nov 2022 UTC launched from the Taiyaun Space Center, China (TSC). Debris objects in space refer to the collection of defunct objects orbiting the Earth. Examples of debris include non-operational satellites, rocket bodies, and fragments generated from explosions, collisions, or faulty payload assembly.

Loading next visibility...
Identifier
54623, 2022-151NZ
Orbit
SSO
Country
Flag of CNCN / PRC
Related business
Manufacturer
SAST
Mission
Spacecraft
Bus & Motor
Unknown
Mass
Unknown
Launch date (UTC)
2022-11-11 (3 years ago)
Launch vehicle
Unknown
Launch site
Taiyaun Space Center, China (TSC)
Object type
Payload
Rocket body
Debris
Shape & HBR
Unknown shape, 0.2 m
Radar Cross Section
Small (<0.1 m²)

Expand to show TLE details & history
Last TLE update: 6 hours ago

TLE from 6 hours ago
0 CZ-6A DEB
1 54623U 22151NZ  26130.46999932  .00000507  00000-0  29433-3 0  9990
2 54623  98.8427 135.6294 0044265  79.2348 281.3803 14.12655292178574
Epoch: 2026-05-10T11:16Z
TLE epoch observation values (Epoch: 2026-05-10T11:16:47.941Z)
Latitude
0.00003°
Longitude
98.15702°
Altitude
847.021 km
Speed
7.432 km/s
True Right ascension
09h 02m 31s
True Declination
0° 00' 00"
Sunlit
Object was in daylight at epoch
Visualization orbit readout
Latitude
Unknown
Longitude
Unknown
Altitude
Unknown
Speed
Unknown
Apparent Right ascension
Unknown
Apparent Declination
Unknown
Sunlit
N/A
Visualization observer readout
Local Sidereal Time
01:59:31
Azimuth
Unknown
Elevation
Unknown
Doppler factor
Unknown
Orbital elements
Apogee altitude
879.458 km
Perigee altitude
815.49 km
Semi-major axis
7,225.611 km
Eccentricity
0.00443
Inclination
98.8427°
RAAN
135.6294°
Arg. of periapsis
79.2348°
True anomaly
280.8825°
Mean anomaly
281.3803°
Eccentric anomaly
281.13145°
Mean motion
3.53371 °/min
Orbital period
101.88 mins
BSTAR
0.00029433
Loading maneuver chart data...
Computing Atmospheric mass density...
Loading historical data...
Loading historical data...
Loading historical data...
Loading historical data...
Loading historical data...
Loading historical data...
Loading historical data...

Documentation

Showing up to 5 results
|